When you browse on this site, cookies collect data to enhance your experience and personalize the content and advertising you see.
Visit our Privacy Policy to learn more. By continuing to use the site, you agree to this use of cookies and data.
  • In Sweden
  • List of Countries
  • For 7 days
  • Water Temperature
  • Satellite Maps
  • Weather Map
  • Weather Widgets
  • user-avatar
    Login

    Hourly Weather Golden Sands

    Today, 16 January, Wednesday

    Time Temperature Precipitation Wind Pressure Humidity
    00:00 -5°C° 0 mm 9 mps 758 mmHg 66%
    01:00 -5°C° 0 mm 8 mps 758 mmHg 67%
    02:00 -4°C° 0 mm 7 mps 759 mmHg 68%
    03:00 -4°C° 0 mm 7 mps 759 mmHg 67%
    04:00 -5°C° 0 mm 8 mps 759 mmHg 65%
    05:00 -5°C° 0 mm 8 mps 760 mmHg 64%
    06:00 -4°C° 0 mm 8 mps 759 mmHg 69%
    07:00 -4°C° 0 mm 8 mps 759 mmHg 73%
    08:00 -4°C° 0 mm 8 mps 759 mmHg 78%
    09:00 -3°C° 0 mm 9 mps 759 mmHg 72%
    10:00 0°C° 0 mm 9 mps 759 mmHg 66%
    11:00 +1°C° 0 mm 9 mps 759 mmHg 60%
    12:00 +1°C° 0 mm 9 mps 758 mmHg 61%
    13:00 +2°C° 0 mm 10 mps 758 mmHg 61%
    14:00 +2°C° 0 mm 10 mps 758 mmHg 62%
    15:00 +2°C° 0 mm 10 mps 758 mmHg 65%
    16:00 +1°C° 0 mm 10 mps 758 mmHg 67%
    17:00 +1°C° 0 mm 10 mps 758 mmHg 70%
    18:00 +1°C° 0 mm 10 mps 759 mmHg 72%
    19:00 +1°C° 0 mm 10 mps 759 mmHg 75%
    20:00 +1°C° 0 mm 10 mps 760 mmHg 77%
    21:00 0°C° 0 mm 9 mps 760 mmHg 79%
    22:00 0°C° 0 mm 8 mps 761 mmHg 81%
    23:00 -1°C° 0 mm 7 mps 762 mmHg 83%

    Tomorrow, 17 January, Thursday

    Time Temperature Precipitation Wind Pressure Humidity
    00:00 -1°C° 0 mm 6 mps 762 mmHg 83%
    01:00 0°C° 0 mm 5 mps 762 mmHg 83%
    02:00 0°C° 0 mm 4 mps 763 mmHg 83%
    03:00 +1°C° 0 mm 3 mps 763 mmHg 82%
    04:00 +1°C° 0 mm 3 mps 763 mmHg 81%
    05:00 +2°C° 0 mm 2 mps 763 mmHg 80%
    06:00 +2°C° 0 mm 2 mps 763 mmHg 78%
    07:00 +2°C° 0 mm 2 mps 763 mmHg 77%
    08:00 +2°C° 0 mm 2 mps 764 mmHg 76%
    09:00 +3°C° 0 mm 2 mps 764 mmHg 72%
    10:00 +3°C° 0 mm 3 mps 764 mmHg 68%
    11:00 +5°C° 0 mm 3 mps 764 mmHg 64%
    12:00 +5°C° 0 mm 4 mps 764 mmHg 63%
    13:00 +6°C° 0 mm 4 mps 763 mmHg 63%
    14:00 +7°C° 0 mm 5 mps 763 mmHg 63%
    15:00 +6°C° 0 mm 5 mps 763 mmHg 66%
    16:00 +5°C° 0 mm 5 mps 763 mmHg 69%
    17:00 +5°C° 0 mm 5 mps 762 mmHg 73%
    18:00 +3°C° 0 mm 5 mps 762 mmHg 74%
    19:00 +3°C° 0 mm 5 mps 762 mmHg 76%
    20:00 +3°C° 0 mm 5 mps 762 mmHg 77%
    21:00 +3°C° 0 mm 5 mps 762 mmHg 78%
    22:00 +3°C° 0 mm 5 mps 762 mmHg 78%
    23:00 +3°C° 0 mm 5 mps 762 mmHg 79%

    Day after tomorrow, 18 January, Friday

    Time Temperature Precipitation Wind Pressure Humidity
    00:00 +3°C° 0 mm 5 mps 762 mmHg 79%
    01:00 +4°C° 0 mm 4 mps 762 mmHg 79%
    02:00 +4°C° 0 mm 4 mps 762 mmHg 79%
    03:00 +4°C° 0 mm 4 mps 762 mmHg 79%
    04:00 +4°C° 0 mm 4 mps 761 mmHg 78%
    05:00 +3°C° 0 mm 4 mps 761 mmHg 78%
    06:00 +2°C° 0 mm 5 mps 761 mmHg 78%
    07:00 +2°C° 0 mm 5 mps 761 mmHg 78%
    08:00 +2°C° 0 mm 5 mps 761 mmHg 78%
    09:00 +3°C° 0 mm 5 mps 762 mmHg 76%
    10:00 +4°C° 0 mm 6 mps 762 mmHg 74%
    11:00 +5°C° 0 mm 6 mps 762 mmHg 72%
    12:00 +7°C° 0 mm 5 mps 762 mmHg 70%
    13:00 +7°C° 0 mm 5 mps 761 mmHg 68%
    14:00 +8°C° 0 mm 4 mps 761 mmHg 66%
    15:00 +7°C° 0 mm 4 mps 761 mmHg 69%
    16:00 +6°C° 0 mm 4 mps 761 mmHg 71%
    17:00 +6°C° 0 mm 4 mps 761 mmHg 73%
    18:00 +5°C° 0 mm 3 mps 762 mmHg 73%
    19:00 +5°C° 0 mm 3 mps 762 mmHg 72%
    20:00 +4°C° 0 mm 3 mps 762 mmHg 72%
    21:00 +4°C° 0 mm 3 mps 763 mmHg 71%
    22:00 +4°C° 0 mm 3 mps 763 mmHg 70%
    23:00 +3°C° 0 mm 3 mps 763 mmHg 68%

    19 January, Saturday

    Time Temperature Precipitation Wind Pressure Humidity
    00:00 +3°C° 0 mm 4 mps 764 mmHg 72%
    01:00 +1°C° 0 mm 4 mps 764 mmHg 75%
    02:00 +1°C° 0 mm 5 mps 764 mmHg 78%
    03:00 +1°C° 0 mm 5 mps 764 mmHg 82%
    04:00 0°C° 0 mm 5 mps 764 mmHg 85%
    05:00 0°C° 0 mm 5 mps 764 mmHg 89%
    06:00 +1°C° 0 mm 5 mps 765 mmHg 89%
    07:00 +1°C° 0 mm 5 mps 765 mmHg 89%
    08:00 +2°C° 0 mm 5 mps 765 mmHg 89%
    09:00 +2°C° 0 mm 5 mps 765 mmHg 88%
    10:00 +2°C° 0 mm 5 mps 766 mmHg 86%
    11:00 +3°C° 0 mm 5 mps 766 mmHg 85%
    12:00 +4°C° 0 mm 4 mps 765 mmHg 84%
    13:00 +4°C° 0 mm 4 mps 765 mmHg 84%
    14:00 +4°C° 0 mm 4 mps 765 mmHg 83%
    15:00 +4°C° 0 mm 4 mps 765 mmHg 84%
    16:00 +3°C° 0 mm 4 mps 765 mmHg 86%
    17:00 +3°C° 0 mm 4 mps 765 mmHg 87%
    18:00 +3°C° 0 mm 4 mps 765 mmHg 88%
    19:00 +2°C° 0 mm 3 mps 765 mmHg 89%
    20:00 +3°C° 0 mm 2 mps 765 mmHg 90%
    21:00 +3°C° 0 mm 2 mps 765 mmHg 91%
    22:00 +3°C° 0 mm 2 mps 765 mmHg 91%
    23:00 +4°C° 0 mm 1 mps 764 mmHg 92%

    20 January, Sunday

    Time Temperature Precipitation Wind Pressure Humidity
    00:00 +4°C° 0 mm 1 mps 764 mmHg 92%
    01:00 +3°C° 0 mm 2 mps 764 mmHg 92%
    02:00 +3°C° 0 mm 2 mps 764 mmHg 92%
    03:00 +3°C° 0 mm 2 mps 763 mmHg 93%
    04:00 +4°C° 0 mm 2 mps 763 mmHg 93%
    05:00 +4°C° 0 mm 2 mps 763 mmHg 94%
    06:00 +4°C° 0 mm 2 mps 762 mmHg 94%
    07:00 +4°C° 0 mm 3 mps 762 mmHg 95%
    08:00 +4°C° 0 mm 3 mps 762 mmHg 96%
    09:00 +4°C° 0 mm 3 mps 762 mmHg 96%
    10:00 +5°C° 0 mm 4 mps 762 mmHg 95%
    11:00 +6°C° 0 mm 4 mps 762 mmHg 95%
    12:00 +6°C° 0 mm 4 mps 761 mmHg 92%
    13:00 +7°C° 0 mm 4 mps 761 mmHg 88%
    14:00 +8°C° 0 mm 4 mps 760 mmHg 85%
    15:00 +7°C° 0 mm 5 mps 760 mmHg 86%
    16:00 +7°C° 0 mm 5 mps 760 mmHg 87%
    17:00 +7°C° 0 mm 5 mps 760 mmHg 88%
    18:00 +7°C° 0 mm 5 mps 760 mmHg 89%
    19:00 +6°C° 0 mm 5 mps 760 mmHg 90%
    20:00 +6°C° 0 mm 5 mps 760 mmHg 90%
    21:00 +5°C° 0.1 mm 5 mps 760 mmHg 89%
    22:00 +4°C° 0.1 mm 6 mps 761 mmHg 88%
    23:00 +3°C° 0.1 mm 6 mps 761 mmHg 87%

    21 January, Monday

    Time Temperature Precipitation Wind Pressure Humidity
    00:00 +2°C° 0.4 mm 7 mps 761 mmHg 86%
    01:00 +1°C° 0.4 mm 8 mps 762 mmHg 85%
    02:00 0°C° 0.4 mm 9 mps 762 mmHg 84%
    03:00 -1°C° 0.2 mm 9 mps 763 mmHg 84%
    04:00 -1°C° 0.2 mm 9 mps 763 mmHg 84%
    05:00 -2°C° 0.2 mm 8 mps 764 mmHg 84%
    06:00 -3°C° 0 mm 9 mps 765 mmHg 80%
    07:00 -3°C° 0 mm 9 mps 765 mmHg 76%
    08:00 -4°C° 0 mm 9 mps 766 mmHg 73%
    09:00 -3°C° 0 mm 9 mps 767 mmHg 70%
    10:00 -2°C° 0 mm 8 mps 768 mmHg 67%
    11:00 -2°C° 0 mm 8 mps 768 mmHg 64%
    12:00 -1°C° 0 mm 8 mps 769 mmHg 61%
    13:00 -1°C° 0 mm 7 mps 769 mmHg 58%
    14:00 -1°C° 0 mm 7 mps 769 mmHg 55%
    15:00 -1°C° 0 mm 6 mps 770 mmHg 56%
    16:00 -1°C° 0 mm 6 mps 770 mmHg 57%
    17:00 -1°C° 0 mm 6 mps 771 mmHg 58%
    18:00 -2°C° 0 mm 6 mps 771 mmHg 60%
    19:00 -2°C° 0 mm 6 mps 771 mmHg 63%
    20:00 -3°C° 0 mm 6 mps 772 mmHg 66%
    21:00 -3°C° 0 mm 6 mps 772 mmHg 67%
    22:00 -3°C° 0 mm 6 mps 772 mmHg 68%
    23:00 -4°C° 0 mm 6 mps 772 mmHg 68%
    Show more